{"data":{"norad_id":54764,"intl_designator":"2022-175G","name":"STARLINK-5458","alt_names":[],"object_type":"PAYLOAD","status":"ACTIVE","operator":null,"country":"US","launch_date":"2022-12-17","launch_site_code":"AFETR","launch_vehicle":null,"mission":null,"orbit_class":"UNKNOWN","rcs_meters":null,"size_class":null,"mass_kg":null,"dimensions":null,"purposes":["comms"],"wikipedia_slug":null,"has_3d_model":false,"image_url":null,"decayed_at":null,"tle_current":{"epoch":"2026-05-25T03:42:18.078624Z","epoch_age_seconds":62030,"freshness":"FRESH","line1":"1 54764U 22175G   26145.15437591 -.00001176  00000+0 -55783-4 0  9994","line2":"2 54764  53.2123  60.7840 0001294  79.5541 280.5597 15.08849374191462","mean_motion":15.08849374,"eccentricity":0.0001294,"inclination_deg":53.2123,"raan_deg":60.784,"arg_perigee_deg":79.5541,"mean_anomaly_deg":280.5597,"bstar":-5.5783e-5,"rev_number":19146,"period_min":95.436961754673,"perigee_km":538.81956652986,"apogee_km":540.60990655928,"semimajor_km":6917.8517365446,"source":"CELESTRAK","updated_at":"2026-05-25T13:38:17.689169Z"}}}